Weather History for Rogers, AR

Change the Weather History Date:

Monday, July 15, 2013

  Actual Average Record
Temperature  
Mean Temperature 80 °F -  
Max Temperature 91 °F 84 °F 96 °F (2011)
Min Temperature 70 °F 66 °F 59 °F (1996)
Cooling Degree Days 16    
Growing Degree Days 30 (Base 50)    
Moisture  
Dew Point 64 °F    
Average Humidity 64    
Maximum Humidity 93    
Minimum Humidity 33    
Precipitation  
Precipitation 0.05 in - - ()
Sea Level Pressure  
Sea Level Pressure 30.11 in    
Wind  
Wind Speed 9 mph (East)    
Max Wind Speed 20 mph    
Max Gust Speed 25 mph    
Visibility 10 miles    
Events Rain , Thunderstorm    
Averages and records for this station are not official NWS values.
T = Trace of Precipitation, MM = Missing Value Source: NWS Daily Summary

Daily Weather History Graph

Daily Weather History Graph

Search for Another Location

Airport:

Trip Planner

Search our weather history database for the weather conditions in past years. The results will help you decide how hot, cold, wet, or windy it might be!

Date:

Astronomy

Jul. 15, 2013 Rise Set
Actual Time 6:10 AM CDT 8:34 PM CDT
Civil Twilight 5:40 AM CDT 9:03 PM CDT
Nautical Twilight 5:04 AM CDT 9:40 PM CDT
Astronomical Twilight 4:24 AM CDT 10:20 PM CDT
Moon 1:16 PM CDT (7/15) 12:00 AM CDT (7/15)
Length of Visible Light 15h 22m
Length of Day
14h 23m
Waxing Crescent, 45% of the Moon is Illuminated
Jul 15
Waxing Crescent
Jul 15
First Quarter
Jul 22
Full
Jul 29
Last Quarter
Aug 6
New

Hourly Weather History & Observations

Time (CDT) Temp. Heat Index Dew Point Humidity Pressure Visibility Wind Dir Wind Speed Gust Speed Precip Events Conditions
12:57 AM 75.9 °F - 63.0 °F 64% 30.06 in 10.0 mi East 5.8 mph - N/A   Clear
1:57 AM 75.0 °F - 63.0 °F 66% 30.05 in 10.0 mi East 8.1 mph - N/A   Clear
2:57 AM 73.0 °F - 61.0 °F 66% 30.06 in 10.0 mi East 9.2 mph - N/A   Partly Cloudy
3:57 AM 72.0 °F - 62.1 °F 71% 30.06 in 10.0 mi East 10.4 mph - N/A   Partly Cloudy
4:57 AM 71.1 °F - 63.0 °F 75% 30.07 in 10.0 mi East 9.2 mph - N/A   Clear
5:57 AM 70.0 °F - 64.0 °F 81% 30.09 in 10.0 mi ENE 8.1 mph - N/A   Mostly Cloudy
6:57 AM 71.1 °F - 64.0 °F 78% 30.11 in 10.0 mi East 9.2 mph - N/A   Clear
7:57 AM 72.0 °F - 64.9 °F 78% 30.13 in 10.0 mi East 9.2 mph - N/A   Clear
8:57 AM 75.0 °F - 66.0 °F 73% 30.14 in 10.0 mi ESE 13.8 mph - N/A   Clear
9:57 AM 77.0 °F - 66.0 °F 69% 30.15 in 10.0 mi East 12.7 mph - N/A   Partly Cloudy
10:57 AM 81.0 °F 82.7 °F 64.9 °F 58% 30.14 in 10.0 mi ESE 10.4 mph - N/A   Clear
11:57 AM 82.9 °F 84.0 °F 63.0 °F 51% 30.13 in 10.0 mi East 10.4 mph - N/A   Mostly Cloudy
12:57 PM 87.1 °F 87.5 °F 62.1 °F 43% 30.11 in 10.0 mi SE 19.6 mph 25.3 mph N/A   Partly Cloudy
1:57 PM 89.1 °F 88.8 °F 60.1 °F 38% 30.10 in 10.0 mi South 15.0 mph 19.6 mph N/A   Partly Cloudy
2:57 PM 89.1 °F 88.8 °F 60.1 °F 38% 30.09 in 10.0 mi East 10.4 mph 20.7 mph N/A   Mostly Cloudy
3:57 PM 91.0 °F 90.2 °F 59.0 °F 34% 30.09 in 10.0 mi SE 6.9 mph - N/A   Clear
4:57 PM 91.0 °F 90.0 °F 57.9 °F 33% 30.07 in 10.0 mi SSE 11.5 mph - N/A   Partly Cloudy
5:57 PM 91.0 °F 90.0 °F 57.9 °F 33% 30.06 in 10.0 mi SSW 9.2 mph - N/A   Clear
6:57 PM 91.0 °F 90.5 °F 60.1 °F 35% 30.07 in 10.0 mi South 10.4 mph - N/A   Overcast
7:52 PM 75.2 °F - 66.2 °F 73% 30.15 in 10.0 mi North 6.9 mph - 0.00 in Rain , Thunderstorm Light Rain
7:57 PM 75.0 °F - 66.9 °F 76% 30.11 in 10.0 mi North 8.1 mph - 0.00 in Rain , Thunderstorm Light Rain
8:07 PM 73.4 °F - 68.0 °F 83% 30.15 in 10.0 mi North 5.8 mph - N/A   Mostly Cloudy
8:57 PM 73.0 °F - 69.1 °F 87% 30.14 in 10.0 mi NE 5.8 mph - 0.00 in Rain Light Rain
9:57 PM 72.0 °F - 68.0 °F 87% 30.17 in 10.0 mi North 3.5 mph - 0.00 in   Mostly Cloudy
10:57 PM 71.1 °F - 69.1 °F 93% 30.17 in 10.0 mi NE 4.6 mph - 0.05 in   Scattered Clouds
11:57 PM 72.0 °F - 68.0 °F 87% 30.17 in 10.0 mi Calm Calm - N/A   Scattered Clouds